Regional Weather Roundup
Issued by NWS Newport/Morehead, NC

Current Version | Previous Version | Text Only | Print | Product List | Glossary On
Versions: 1 2 3 4 5 6 7 8 9 10 11 12 13 14 15 16 17 18 19 20 21 22 23 24 25 26 27 28 29 30 31 32 33 34 35 36 37 38 39 40 41 42 43 44 45 46 47 48 49 50
000 ASUS42 KMHX 251225 RWRMHX WEATHER ROUNDUP FOR EASTERN NORTH CAROLINA NATIONAL WEATHER SERVICE NEWPORT/MOREHEAD CITY NC 800 AM EDT SUN SEP 25 2016 NOTE: "FAIR" INDICATES FEW OR NO CLOUDS BELOW 12,000 FEET WITH NO SIGNIFICANT WEATHER AND/OR OBSTRUCTIONS TO VISIBILITY NCZ015>017-031-032-045>047-102-103-251300- NORTH COAST CITY SKY/WX TMP DP RH WIND PRES REMARKS EDENTON CLOUDY 70 70 100 NE5 30.16R ELIZABETH CITY PTSUNNY 69 62 78 NE9 30.15R KITTY HAWK NOT AVBL MANTEO CLOUDY 69 60 72 NE10G16 30.15R $$ NCZ045>047-081-094-103-104-251300- CENTRAL COAST CITY SKY/WX TMP DP RH WIND PRES REMARKS FRISCO CLOUDY 74 67 78 NE12G20 30.11R $$ NCZ095-097-098-100-101-251300- SOUTHERN COAST CITY SKY/WX TMP DP RH WIND PRES REMARKS BEAUFORT CLOUDY 75 70 84 NE8 30.11R CEDAR ISLAND NOT AVBL JACKSONVILLE CLOUDY 72 69 90 NE5 30.11R PINEY ISLAND CLOUDY N/A N/A N/A NE12 30.11S WILMINGTON MOSUNNY 72 70 93 NE9 30.10R FOG $$ NCZ011>013-027>030-043-044-078>080-089-090>093-098-251300- COASTAL PLAIN CITY SKY/WX TMP DP RH WIND PRES REMARKS AHOSKIE LGT RAIN 67 67 98 N3 30.17R CLINTON CLOUDY 73 72 98 NE5 30.13R FOG ELIZABETHTOWN PTSUNNY 72 72 100 CALM 30.12R FOG GOLDSBORO CLOUDY 71 71 100 NE8 30.12R GREENVILLE CLOUDY 70 68 94 NE6 30.16R HAVELOCK CLOUDY 74 68 81 NE10 30.13R KENANSVILLE CLOUDY 72 70 94 CALM 30.13S FOG KINSTON PTSUNNY 72 68 88 NE5 30.14R NEW BERN CLOUDY 72 67 84 NE8 30.14R RICHLANDS PTSUNNY 71 70 96 NE6 30.13R FOG ROCKY MOUNT CLOUDY 70 68 93 NE8 30.15R WASHINGTON CLOUDY 69 67 91 NE5 30.14S WHITEVILLE NOT AVBL $$ AMZ130-135-150-152-154-156-158-170-250-252-270-ANZ085-086-088-633-658-670-251300- MARINE OBSERVATIONS STATION/POSITION TIME TEMP WIND PRES WAVE SWELL AIR SEA DIR/SP/G HT/PER HT/PER (UTC) (F) (DEG/KT/KT) (MB) (FT/S) (FT/S) CHESAPEAKE LIGHT NOT AVBL 64 E VA BEACH 1150 71 74 30/ 16/ 19 1020.0 6/10 3/10 DUCK 1200 70 77 20/ 17/ 19 1020.3 2 E DUCK 1211 76 N/A 5/10 2/11 OREGON INLET 1200 69 78 10/ 11/ 15 1020.4 13E OREGON INLT 1200 76 N/A 6/10 5/10 HATTERAS CG 1200 74 81 40/ 11/ 19 1019.5 DIAMOND BUOY 1150 76 85 20/ 17/ 21 1018.8 6/10 5/10 CAPE LOOKOUT 1200 77 40/ 13/ 15 1019.1 BEAUFORT LAB 1200 74 79 30/ 7/ 9 1018.9 30 SE NEW RVR IN 1208 79 82 40/ 14/ 17 1018.9 30 SE NEW RVR IN 1155 82 N/A 4/11 2/11 27 SE WRIGHTSVLE 1208 80 81 40/ 14/ 17 1018.8 5 SE WRIGHTSVLE 1208 77 81 40/ 16/ 19 1019.5 225 S CAPE HAT 1150 82 83 50/ 6/ 6 1016.9 3/11 3/11 41 SE CHARLESTON 1150 81 82 50/ 12/ 14 1017.2 4/10 3/10 $$

USA.gov is the U.S. government's official web portal to all federal, state and local government web resources and services.